Home   Weather   Newark   Past weeks

Flag for USA Past Weather in Newark, New Jersey, USA — Yesterday and Last 2 Weeks

Now
39 °F

Mostly cloudy.


Feels Like: 32 °F
Forecast: 38 / 48 °F
Wind: 10 mph from North

Location: Newark International Airport

Current Time: Dec 7, 2016 at 7:50:35 am

Latest Report: Dec 7, 2016 at 6:51 am


Visibility: 9 mi

Pressure: 29.93 "Hg

Humidity: 93%

Dew Point: 37 °F

Location of NewarkLocation

Past Weather in Newark — Graph

°F

Newark Temperature Yesterday

Maximum temperature yesterday: 46 °F (at 11:51 am)
Minimum temperature yesterday: 36 °F (at 3:51 am)
Average temperature yesterday: 41 °F

High & Low Weather Summary for the Past Weeks

 TemperatureHumidityPressure
High60 °F (Nov 29, 3:51 pm)100% (Nov 29, 6:51 pm)30.31 "Hg (Nov 29, 6:51 pm)
Low33 °F (Nov 23, 6:51 am)34% (Nov 23, 1:51 pm)29.46 "Hg (Dec 1, 2:51 am)
Average46 °F67%30.05 "Hg
* Reported Nov 22 5:51 am — Dec 7 5:51 am, Newark, Weather by CustomWeather, © 2016

Note: Actual official high and low records may vary slightly from our data, if they occured in-between our weather recording intervals... More about our weather records

Advertising

Newark Weather History for the Previous 24 Hours

Scroll right to see more
 ConditionsComfort  
Time TempWeatherWind HumidityBarometerVisibility
5:51 am
Wed, Dec 7
39 °FMostly cloudy.12 mph93%29.93 "Hg9 mi
4:51 am39 °FFog.13 mph93%29.89 "Hg6 mi
3:51 am39 °FFog.13 mph96%29.89 "Hg3 mi
2:51 am39 °FLight rain. Fog.12 mph96%29.86 "Hg3 mi
1:51 am40 °FMostly cloudy.10 mph97%29.84 "Hg7 mi
12:51 am40 °FLight rain. Fog.13 mph93%29.83 "Hg6 mi
11:51 pm
Tue, Dec 6
39 °FLight rain. Mostly cloudy.12 mph93%29.85 "Hg8 mi
10:51 pm42 °FMostly cloudy.16 mph85%29.88 "Hg9 mi
9:51 pm41 °FLight rain. Mostly cloudy.15 mph86%29.89 "Hg7 mi
9:00 pm41 °FSleet. Mostly cloudy.8 mph86%29.93 "Hg7 mi
8:51 pm41 °FSleet. Mostly cloudy.8 mph86%29.93 "Hg7 mi
7:51 pm41 °FRain. Fog.13 mph86%29.94 "Hg5 mi
6:51 pm43 °FRain. Mostly cloudy.8 mph79%29.96 "Hg6 mi
5:51 pm45 °FSleet. Mostly cloudy.9 mph65%29.95 "Hg5 mi
4:51 pm46 °FLight rain. Mostly cloudy.7 mph61%29.97 "Hg10 mi
3:51 pm45 °FMostly cloudy.8 mph60%29.95 "Hg10 mi
2:51 pm46 °FMostly cloudy.7 mph54%29.99 "Hg10 mi
1:51 pm46 °FMostly cloudy.9 mph51%30.00 "Hg10 mi
12:51 pm46 °FMostly cloudy.7 mph54%30.04 "Hg10 mi
11:51 am46 °FCloudy.10 mph54%30.08 "Hg10 mi
10:51 am45 °FMostly cloudy.8 mph60%30.11 "Hg10 mi
9:51 am41 °FMostly cloudy.8 mph70%30.14 "Hg10 mi
8:51 am40 °FPartly sunny.6 mph70%30.14 "Hg10 mi
7:51 am36 °FBroken clouds.9 mph75%30.13 "Hg10 mi
Weather by CustomWeather, © 2016

See weather overviewHow to use our weather pages